Date String (YYYY-MM-DD hh:mm:ss) UTC,Instrument flags,absolute air pressure of the measurement (hPa),sample flow rate (lpm),inlet stack bypass flow (lpm),air temperature of the measurement (°C),ambient temperature measured by the external sensor (°C),aerosol sample conditioner tube jacket temperature (°C),OPC LED temperature (°C),internal box temperature (°C),relative humidity of the measurement (%),span deviation,mass concentration of particles derived from Lorenz-Mie calculation of OPC scattering (μg/m³),mass concentration of particles derived from Lorenz-Mie calculation of OPC scattering (μg/m³),mass concentration of particles derived from Lorenz-Mie calculation of OPC scattering (μg/m³)
DateTimeUTC,F1_M11,P_M11,Q1_M11,Q2_M11,T1_M11,T2_M11,T3_M11,T4_M11,T5_M11,U1_M11,ZSPAN_M11,X2_M11,X0_M11,X1_M11
2024-04-14 20:00:00,SystemResetWarning,0825.9,4.99,000.00,024.5,023.7,000.0,032.7,026.4,012.4,0000.0,0004.41,0015.73,0003.07
2024-04-14 20:01:00,SystemResetWarning,0825.8,5.01,000.00,024.6,024.0,000.0,032.7,026.6,012.7,0000.0,0004.48,0015.81,0003.08
2024-04-14 20:02:00,SystemResetWarning,0825.9,5.01,000.00,024.7,024.2,000.0,032.7,026.7,012.9,0000.0,0004.55,0016.90,0003.10
2024-04-14 20:03:00,SystemResetWarning,0825.9,5.00,000.00,024.8,024.4,000.0,032.8,026.8,012.8,0000.0,0004.54,0020.45,0003.11
2024-04-14 20:04:00,SystemResetWarning,0825.8,4.99,000.00,024.9,024.5,000.0,032.8,026.8,012.5,0000.0,0004.57,0022.11,0003.11
2024-04-14 20:05:00,SystemResetWarning,0825.8,5.00,000.00,024.8,023.2,000.0,032.9,026.1,013.4,0000.0,0004.62,0022.11,0003.11
2024-04-14 20:06:00,SystemResetWarning,0825.7,5.00,000.00,024.4,021.5,000.0,033.0,025.1,013.1,0000.0,0004.61,0020.59,0003.12
2024-04-14 20:07:00,SystemResetWarning,0825.7,5.01,000.00,024.2,021.7,000.0,032.9,025.1,013.6,0000.0,0004.58,0020.36,0003.12
2024-04-14 20:08:00,SystemResetWarning,0825.8,5.01,000.00,024.2,022.1,000.0,032.8,025.3,014.0,0000.0,0004.57,0020.74,0003.11
2024-04-14 20:09:00,SystemResetWarning,0825.7,5.00,000.00,024.2,022.5,000.0,032.7,025.6,013.1,0000.0,0004.63,0020.71,0003.11
2024-04-14 20:10:00,SystemResetWarning,0825.7,5.01,000.00,024.3,022.9,000.0,032.7,025.9,013.5,0000.0,0004.62,0020.26,0003.11
2024-04-14 20:11:00,SystemResetWarning,0825.6,5.00,000.00,024.4,023.2,000.0,032.7,026.2,012.9,0000.0,0004.62,0019.28,0003.11
2024-04-14 20:12:00,SystemResetWarning,0825.6,5.00,000.00,024.5,023.5,000.0,032.7,026.3,013.3,0000.0,0004.58,0019.38,0003.12
2024-04-14 20:13:00,SystemResetWarning,0825.6,4.99,000.00,024.6,023.8,000.0,032.7,026.5,012.4,0000.0,0004.52,0019.49,0003.11
2024-04-14 20:14:00,SystemResetWarning,0825.5,5.00,000.00,024.7,024.0,000.0,032.7,026.6,012.5,0000.0,0004.51,0017.07,0003.10
2024-04-14 20:15:00,SystemResetWarning,0825.4,5.00,000.00,024.8,024.2,000.0,032.7,026.7,012.4,0000.0,0004.47,0013.88,0003.11
2024-04-14 20:16:00,SystemResetWarning,0825.5,5.01,000.00,024.9,024.4,000.0,032.8,026.8,011.9,0000.0,0004.47,0013.50,0003.12
2024-04-14 20:17:00,SystemResetWarning,0825.5,5.00,000.00,025.0,024.4,000.0,032.9,026.8,011.6,0000.0,0004.48,0013.59,0003.12
2024-04-14 20:18:00,SystemResetWarning,0825.4,4.98,000.00,024.8,022.8,000.0,032.9,025.8,011.8,0000.0,0004.49,0013.99,0003.12
2024-04-14 20:19:00,SystemResetWarning,0825.3,5.03,000.00,024.4,021.5,000.0,033.0,025.1,012.2,0000.0,0004.54,0013.30,0003.15
2024-04-14 20:20:00,SystemResetWarning,0825.4,5.00,000.00,024.2,021.9,000.0,032.9,025.2,012.5,0000.0,0004.48,0012.79,0003.15
2024-04-14 20:21:00,SystemResetWarning,0825.4,4.99,000.00,024.2,022.3,000.0,032.8,025.5,012.6,0000.0,0004.45,0012.25,0003.14
2024-04-14 20:22:00,SystemResetWarning,0825.4,5.00,000.00,024.3,022.7,000.0,032.7,025.8,012.9,0000.0,0004.45,0012.42,0003.15
2024-04-14 20:23:00,SystemResetWarning,0825.4,5.01,000.00,024.4,023.0,000.0,032.7,026.1,012.7,0000.0,0004.46,0012.94,0003.15
2024-04-14 20:24:00,SystemResetWarning,0825.3,4.99,000.00,024.4,023.4,000.0,032.7,026.2,012.5,0000.0,0004.44,0011.67,0003.14
2024-04-14 20:25:00,SystemResetWarning,0825.3,4.99,000.00,024.5,023.6,000.0,032.7,026.4,012.5,0000.0,0004.39,0011.17,0003.14
2024-04-14 20:26:00,SystemResetWarning,0825.3,5.00,000.00,024.6,023.9,000.0,032.7,026.6,012.9,0000.0,0004.42,0011.23,0003.14
2024-04-14 20:27:00,SystemResetWarning,0825.5,5.00,000.00,024.7,024.2,000.0,032.7,026.6,012.6,0000.0,0004.42,0011.28,0003.13
2024-04-14 20:28:00,SystemResetWarning,0825.4,5.01,000.00,024.8,024.4,000.0,032.8,026.8,011.5,0000.0,0004.42,0011.25,0003.13
2024-04-14 20:29:00,SystemResetWarning,0825.4,5.00,000.00,024.9,024.5,000.0,032.8,026.9,011.5,0000.0,0004.39,0010.78,0003.13
2024-04-14 20:30:00,SystemResetWarning,0825.3,4.98,000.00,024.8,023.3,000.0,032.9,026.1,012.0,0000.0,0004.40,0010.82,0003.11
2024-04-14 20:31:00,SystemResetWarning,0825.3,5.00,000.00,024.4,021.6,000.0,032.9,025.1,012.3,0000.0,0004.36,0010.97,0003.11
2024-04-14 20:32:00,SystemResetWarning,0825.2,5.01,000.00,024.2,021.7,000.0,032.9,025.1,013.2,0000.0,0004.37,0011.44,0003.11
2024-04-14 20:33:00,SystemResetWarning,0825.2,4.99,000.00,024.2,022.1,000.0,032.8,025.3,012.2,0000.0,0004.46,0012.13,0003.11
2024-04-14 20:34:00,SystemResetWarning,0825.2,5.00,000.00,024.2,022.5,000.0,032.7,025.6,012.5,0000.0,0004.51,0013.03,0003.12
2024-04-14 20:35:00,SystemResetWarning,0825.2,5.00,000.00,024.3,022.8,000.0,032.7,025.9,012.7,0000.0,0004.50,0013.11,0003.14
2024-04-14 20:36:00,SystemResetWarning,0825.2,5.00,000.00,024.4,023.2,000.0,032.6,026.1,011.7,0000.0,0004.51,0014.54,0003.15
2024-04-14 20:37:00,SystemResetWarning,0825.3,5.00,000.00,024.5,023.5,000.0,032.6,026.3,012.3,0000.0,0004.54,0015.86,0003.16
2024-04-14 20:38:00,SystemResetWarning,0825.2,5.00,000.00,024.5,023.8,000.0,032.7,026.5,012.8,0000.0,0004.54,0016.52,0003.15
2024-04-14 20:39:00,SystemResetWarning,0825.2,5.00,000.00,024.6,024.0,000.0,032.7,026.6,012.5,0000.0,0004.50,0016.46,0003.15
2024-04-14 20:40:00,SystemResetWarning,0825.3,5.00,000.00,024.7,024.2,000.0,032.7,026.7,012.8,0000.0,0004.55,0017.01,0003.16
2024-04-14 20:41:00,SystemResetWarning,0825.2,5.00,000.00,024.8,024.4,000.0,032.8,026.8,012.3,0000.0,0004.59,0017.82,0003.17
2024-04-14 20:42:00,SystemResetWarning,0825.2,4.98,000.00,024.9,023.8,000.0,032.9,026.4,012.5,0000.0,0004.63,0018.19,0003.18
2024-04-14 20:43:00,SystemResetWarning,0825.1,5.00,000.00,024.5,021.9,000.0,032.9,025.3,013.1,0000.0,0004.61,0017.66,0003.19
2024-04-14 20:44:00,SystemResetWarning,0825.0,5.02,000.00,024.2,021.6,000.0,032.9,025.1,013.4,0000.0,0004.59,0017.05,0003.20
2024-04-14 20:45:00,SystemResetWarning,0825.1,4.99,000.00,024.2,022.1,000.0,032.8,025.3,013.3,0000.0,0004.56,0016.77,0003.20
2024-04-14 20:46:00,SystemResetWarning,0825.1,5.00,000.00,024.2,022.4,000.0,032.7,025.6,012.1,0000.0,0004.58,0017.16,0003.19
2024-04-14 20:47:00,SystemResetWarning,0825.0,5.00,000.00,024.3,022.8,000.0,032.6,025.9,012.0,0000.0,0004.58,0015.70,0003.19
2024-04-14 20:48:00,SystemResetWarning,0825.0,5.00,000.00,024.4,023.1,000.0,032.6,026.1,012.9,0000.0,0004.52,0014.32,0003.17
2024-04-14 20:49:00,SystemResetWarning,0825.0,5.00,000.00,024.4,023.5,000.0,032.6,026.3,013.4,0000.0,0004.47,0014.06,0003.17
2024-04-14 20:50:00,SystemResetWarning,0825.0,5.00,000.00,024.5,023.8,000.0,032.7,026.5,012.5,0000.0,0004.47,0014.10,0003.17
2024-04-14 20:51:00,SystemResetWarning,0824.9,5.00,000.00,024.6,024.0,000.0,032.7,026.6,011.7,0000.0,0004.45,0014.42,0003.17
2024-04-14 20:52:00,SystemResetWarning,0825.0,5.00,000.00,024.7,024.2,000.0,032.7,026.7,012.1,0000.0,0004.42,0014.73,0003.16
2024-04-14 20:53:00,SystemResetWarning,0824.9,4.99,000.00,024.8,024.4,000.0,032.8,026.8,011.9,0000.0,0004.39,0015.20,0003.15
2024-04-14 20:54:00,SystemResetWarning,0824.9,4.99,000.00,024.8,023.3,000.0,032.9,026.1,012.0,0000.0,0004.38,0015.74,0003.15
2024-04-14 20:55:00,SystemResetWarning,0824.8,5.01,000.00,024.4,021.6,000.0,032.9,025.1,011.7,0000.0,0004.33,0016.60,0003.13
2024-04-14 20:56:00,SystemResetWarning,0824.8,5.01,000.00,024.2,021.7,000.0,032.9,025.1,012.2,0000.0,0004.25,0015.25,0003.12
2024-04-14 20:57:00,SystemResetWarning,0824.9,5.00,000.00,024.1,022.1,000.0,032.7,025.3,012.5,0000.0,0004.26,0015.08,0003.12
2024-04-14 20:58:00,SystemResetWarning,0824.8,4.99,000.00,024.2,022.5,000.0,032.6,025.6,012.7,0000.0,0004.28,0015.62,0003.13
2024-04-14 20:59:00,SystemResetWarning,0824.8,5.00,000.00,024.3,022.9,000.0,032.6,025.9,012.5,0000.0,0004.32,0015.53,0003.13
